| time (UTC) | temp F | wind direction | speed knots | gust knots | rain 1hr in | rain 24hr in | rain mn in | humidity % | barometer mb |
| 20260906221524 | 70 | 84 | 3.5 | 7.0 | 0.00 | 0.00 | 0.00 | 63 | 1019.3 |
| 20260906221012 | 70 | 101 | 3.5 | 7.0 | 0.00 | 0.00 | 0.00 | 63 | 1019.3 |
| 20260906220514 | 71 | 80 | 1.7 | 6.1 | 0.00 | 0.00 | 0.00 | 64 | 1019.2 |
| 20260906220031 | 71 | 70 | 2.6 | 7.0 | 0.00 | 0.00 | 0.00 | 63 | 1019.3 |
| 20260906215514 | 71 | 53 | 1.7 | 7.0 | 0.00 | 0.00 | 0.00 | 62 | 1019.2 |
| 20260906215014 | 71 | 63 | 2.6 | 5.2 | 0.00 | 0.00 | 0.00 | 64 | 1019.2 |
| 20260906214541 | 71 | 46 | 1.7 | 5.2 | 0.00 | 0.00 | 0.00 | 63 | 1019.2 |
| 20260906214015 | 71 | 70 | 1.7 | 7.8 | 0.00 | 0.00 | 0.00 | 63 | 1019.2 |
| 20260906213518 | 71 | 60 | 2.6 | 7.8 | 0.00 | 0.00 | 0.00 | 62 | 1019.2 |
| 20260906213033 | 72 | 98 | 3.5 | 7.8 | 0.00 | 0.00 | 0.00 | 63 | 1019.3 |
| 20260906212515 | 71 | 352 | 2.6 | 7.8 | 0.00 | 0.00 | 0.00 | 63 | 1019.3 |
| 20260906212015 | 71 | 348 | 2.6 | 7.8 | 0.00 | 0.00 | 0.00 | 61 | 1019.3 |
| 20260906211534 | 72 | 60 | 2.6 | 9.6 | 0.00 | 0.00 | 0.00 | 62 | 1019.3 |
| 20260906211007 | 72 | 45 | 3.5 | 9.6 | 0.00 | 0.00 | 0.00 | 62 | 1019.3 |
| 20260906210510 | 72 | 58 | 2.6 | 9.6 | 0.00 | 0.00 | 0.00 | 61 | 1019.4 |
| 20260906210033 | 72 | 57 | 3.5 | 8.7 | 0.00 | 0.00 | 0.00 | 63 | 1019.4 |
| 20260906205513 | 72 | 10 | 1.7 | 5.2 | 0.00 | 0.00 | 0.00 | 64 | 1019.5 |
| 20260906205006 | 72 | 28 | 1.7 | 5.2 | 0.00 | 0.00 | 0.00 | 61 | 1019.5 |
| 20260906204504 | 72 | 103 | 1.7 | 4.3 | 0.00 | 0.00 | 0.00 | 66 | 1019.4 |
| 20260906204002 | 72 | 84 | 1.7 | 4.3 | 0.00 | 0.00 | 0.00 | 67 | 1019.4 |
| 20260906203506 | 72 | 310 | 1.7 | 3.5 | 0.00 | 0.00 | 0.00 | 69 | 1019.4 |
| 20260906203011 | 71 | 124 | 1.7 | 6.1 | 0.00 | 0.00 | 0.00 | 70 | 1019.4 |
| 20260906202506 | 71 | 82 | 2.6 | 9.6 | 0.00 | 0.00 | 0.00 | 70 | 1019.4 |
| 20260906202006 | 72 | 40 | 2.6 | 9.6 | 0.00 | 0.00 | 0.00 | 70 | 1019.3 |
| 20260906201529 | 71 | 338 | 2.6 | 9.6 | 0.00 | 0.00 | 0.00 | 70 | 1019.2 |
| 20260906201007 | 70 | 331 | 2.6 | 5.2 | 0.00 | 0.00 | 0.00 | 69 | 1019.3 |
| 20260906200512 | 71 | 77 | 1.7 | 7.8 | 0.00 | 0.00 | 0.00 | 69 | 1019.4 |
| 20260906200019 | 71 | 45 | 1.7 | 7.8 | 0.00 | 0.00 | 0.00 | 69 | 1019.4 |
| 20260906195508 | 71 | 83 | 3.5 | 7.8 | 0.00 | 0.00 | 0.00 | 71 | 1019.4 |
| 20260906195008 | 71 | 89 | 3.5 | 10.4 | 0.00 | 0.00 | 0.00 | 69 | 1019.4 |
| 20260906194518 | 72 | 69 | 3.5 | 10.4 | 0.00 | 0.00 | 0.00 | 69 | 1019.4 |
| 20260906194005 | 72 | 41 | 2.6 | 12.2 | 0.00 | 0.00 | 0.00 | 70 | 1019.2 |
| 20260906193504 | 72 | 30 | 3.5 | 12.2 | 0.00 | 0.00 | 0.00 | 66 | 1019.3 |
| 20260906193007 | 73 | 356 | 2.6 | 7.0 | 0.00 | 0.00 | 0.00 | 69 | 1019.3 |
| 20260906192502 | 72 | 89 | 2.6 | 7.8 | 0.00 | 0.00 | 0.00 | 69 | 1019.2 |
| 20260906192008 | 72 | 67 | 3.5 | 8.7 | 0.00 | 0.00 | 0.00 | 67 | 1019.3 |
| 20260906191509 | 73 | 345 | 2.6 | 8.7 | 0.00 | 0.00 | 0.00 | 67 | 1019.4 |
| 20260906191007 | 73 | 101 | 3.5 | 8.7 | 0.00 | 0.00 | 0.00 | 66 | 1019.3 |
| 20260906190504 | 73 | 93 | 2.6 | 5.2 | 0.00 | 0.00 | 0.00 | 67 | 1019.3 |
| 20260906190026 | 73 | 353 | 3.5 | 7.0 | 0.00 | 0.00 | 0.00 | 67 | 1019.3 |
| 20260906185509 | 74 | 46 | 3.5 | 7.0 | 0.00 | 0.00 | 0.00 | 66 | 1019.4 |
| 20260906185009 | 74 | 23 | 3.5 | 7.0 | 0.00 | 0.00 | 0.00 | 66 | 1019.3 |
| 20260906184523 | 74 | 339 | 1.7 | 5.2 | 0.00 | 0.00 | 0.00 | 68 | 1019.3 |
| 20260906184009 | 73 | 43 | 2.6 | 7.8 | 0.00 | 0.00 | 0.00 | 68 | 1019.3 |
| 20260906183509 | 73 | 93 | 3.5 | 7.8 | 0.00 | 0.00 | 0.00 | 67 | 1019.4 |
| 20260906183024 | 73 | 9 | 1.7 | 8.7 | 0.00 | 0.00 | 0.00 | 68 | 1019.4 |
| 20260906182503 | 72 | 49 | 2.6 | 8.7 | 0.00 | 0.00 | 0.00 | 66 | 1019.4 |
| 20260906182007 | 73 | 338 | 0.9 | 7.0 | 0.00 | 0.00 | 0.00 | 68 | 1019.4 |
| 20260906181520 | 74 | 26 | 3.5 | 7.0 | 0.00 | 0.00 | 0.00 | 67 | 1019.4 |
| 20260906181006 | 74 | 96 | 2.6 | 10.4 | 0.00 | 0.00 | 0.00 | 67 | 1019.4 |
| 20260906180504 | 73 | 39 | 1.7 | 10.4 | 0.00 | 0.00 | 0.00 | 69 | 1019.5 |
| 20260906180012 | 72 | 69 | 1.7 | 7.8 | 0.00 | 0.00 | 0.00 | 70 | 1019.4 |
| 20260906175506 | 73 | 321 | 2.6 | 7.8 | 0.00 | 0.00 | 0.00 | 68 | 1019.4 |
| 20260906175007 | 73 | 45 | 2.6 | 11.3 | 0.00 | 0.00 | 0.00 | 69 | 1019.4 |
| 20260906174519 | 73 | 148 | 3.5 | 11.3 | 0.00 | 0.00 | 0.00 | 68 | 1019.4 |
| 20260906174012 | 73 | 108 | 4.3 | 10.4 | 0.00 | 0.00 | 0.00 | 69 | 1019.5 |
| 20260906173511 | 73 | 140 | 4.3 | 9.6 | 0.00 | 0.00 | 0.00 | 68 | 1019.5 |
| 20260906173025 | 73 | 328 | 2.6 | 7.0 | 0.00 | 0.00 | 0.00 | 69 | 1019.4 |
| 20260906172509 | 72 | 108 | 2.6 | 6.1 | 0.00 | 0.00 | 0.00 | 69 | 1019.5 |
| 20260906172010 | 72 | 136 | 2.6 | 5.2 | 0.00 | 0.00 | 0.00 | 70 | 1019.4 |
| 20260906171527 | 72 | 325 | 1.7 | 7.8 | 0.00 | 0.00 | 0.00 | 71 | 1019.5 |
| 20260906171006 | 72 | 18 | 3.5 | 7.8 | 0.00 | 0.00 | 0.00 | 70 | 1019.5 |
| 20260906170504 | 72 | 60 | 1.7 | 7.0 | 0.00 | 0.00 | 0.00 | 71 | 1019.5 |
| 20260906170010 | 72 | 70 | 3.5 | 10.4 | 0.00 | 0.00 | 0.00 | 71 | 1019.5 |
| 20260906165506 | 72 | 91 | 5.2 | 10.4 | 0.00 | 0.00 | 0.00 | 73 | 1019.5 |
| 20260906165008 | 72 | 60 | 2.6 | 12.2 | 0.00 | 0.00 | 0.00 | 71 | 1019.5 |
| 20260906164521 | 72 | 59 | 2.6 | 12.2 | 0.00 | 0.00 | 0.00 | 71 | 1019.6 |
| 20260906164008 | 72 | 136 | 1.7 | 6.1 | 0.00 | 0.00 | 0.00 | 72 | 1019.6 |
| 20260906163511 | 72 | 106 | 2.6 | 7.0 | 0.00 | 0.00 | 0.00 | 72 | 1019.6 |
| 20260906163040 | 71 | 10 | 2.6 | 7.0 | 0.00 | 0.00 | 0.00 | 73 | 1019.6 |
| 20260906162516 | 71 | 44 | 2.6 | 6.1 | 0.00 | 0.00 | 0.00 | 73 | 1019.6 |
| 20260906162015 | 71 | 95 | 2.6 | 4.3 | 0.00 | 0.00 | 0.00 | 75 | 1019.6 |
| 20260906161530 | 71 | 338 | 2.6 | 6.1 | 0.00 | 0.00 | 0.00 | 74 | 1019.6 |
| 20260906161018 | 72 | 18 | 1.7 | 7.8 | 0.00 | 0.00 | 0.00 | 73 | 1019.6 |
| 20260906160512 | 72 | 60 | 3.5 | 10.4 | 0.00 | 0.00 | 0.00 | 75 | 1019.7 |
| 20260906160011 | 71 | 1 | 4.3 | 10.4 | 0.00 | 0.00 | 0.00 | 73 | 1019.7 |
| 20260906155504 | 71 | 53 | 2.6 | 6.1 | 0.00 | 0.00 | 0.00 | 75 | 1019.6 |
| 20260906155003 | 70 | 64 | 1.7 | 8.7 | 0.00 | 0.00 | 0.00 | 75 | 1019.6 |
| 20260906154514 | 71 | 49 | 2.6 | 9.6 | 0.00 | 0.00 | 0.00 | 73 | 1019.7 |
| 20260906154008 | 72 | 72 | 3.5 | 9.6 | 0.00 | 0.00 | 0.00 | 71 | 1019.6 |
| 20260906153507 | 72 | 356 | 2.6 | 8.7 | 0.00 | 0.00 | 0.00 | 73 | 1019.6 |
| 20260906153020 | 72 | 86 | 1.7 | 7.0 | 0.00 | 0.00 | 0.00 | 72 | 1019.5 |
| 20260906152508 | 72 | 6 | 1.7 | 6.1 | 0.00 | 0.00 | 0.00 | 73 | 1019.5 |
| 20260906152012 | 72 | 55 | 1.7 | 5.2 | 0.00 | 0.00 | 0.00 | 75 | 1019.6 |
| 20260906151525 | 72 | 27 | 1.7 | 7.0 | 0.00 | 0.00 | 0.00 | 75 | 1019.6 |
| 20260906151020 | 71 | 347 | 0.9 | 7.8 | 0.00 | 0.00 | 0.00 | 75 | 1019.5 |
| 20260906150512 | 72 | 336 | 3.5 | 7.8 | 0.00 | 0.00 | 0.00 | 76 | 1019.5 |
| 20260906150029 | 71 | 81 | 0.9 | 11.3 | 0.00 | 0.00 | 0.00 | 76 | 1019.4 |
| 20260906145513 | 71 | 76 | 0.9 | 11.3 | 0.00 | 0.00 | 0.00 | 76 | 1019.3 |
| 20260906145012 | 70 | 65 | 3.5 | 7.8 | 0.00 | 0.00 | 0.00 | 77 | 1019.3 |
| 20260906144510 | 70 | 358 | 2.6 | 7.0 | 0.00 | 0.00 | 0.00 | 78 | 1019.3 |
| 20260906144004 | 69 | 135 | 1.7 | 6.1 | 0.00 | 0.00 | 0.00 | 79 | 1019.3 |
| 20260906143506 | 68 | 354 | 1.7 | 6.1 | 0.00 | 0.00 | 0.00 | 82 | 1019.2 |
| 20260906143016 | 68 | 11 | 2.6 | 7.0 | 0.00 | 0.00 | 0.00 | 82 | 1019.3 |
| 20260906142510 | 68 | 13 | 2.6 | 7.0 | 0.00 | 0.00 | 0.00 | 81 | 1019.3 |
| 20260906142010 | 69 | 328 | 1.7 | 5.2 | 0.00 | 0.00 | 0.00 | 80 | 1019.2 |
| 20260906141523 | 69 | 349 | 1.7 | 5.2 | 0.00 | 0.00 | 0.00 | 81 | 1019.2 |
| 20260906141012 | 69 | 325 | 2.6 | 5.2 | 0.00 | 0.00 | 0.00 | 81 | 1019.1 |
| 20260906140517 | 68 | 131 | 1.7 | 9.6 | 0.00 | 0.00 | 0.00 | 83 | 1019.1 |
| 20260906140010 | 67 | 122 | 2.6 | 9.6 | 0.00 | 0.00 | 0.00 | 83 | 1019.2 |
| 20260906135504 | 67 | 27 | 2.6 | 4.3 | 0.00 | 0.00 | 0.00 | 83 | 1019.2 |
| 20260906135003 | 68 | 25 | 1.7 | 6.1 | 0.00 | 0.00 | 0.00 | 83 | 1019.2 |
| 20260906134509 | 67 | 341 | 0.9 | 6.1 | 0.00 | 0.00 | 0.00 | 85 | 1019.2 |
| 20260906134007 | 67 | 106 | 1.7 | 5.2 | 0.00 | 0.00 | 0.00 | 85 | 1019.2 |
| 20260906133510 | 67 | 79 | 1.7 | 7.0 | 0.00 | 0.00 | 0.00 | 84 | 1019.2 |
| 20260906133012 | 68 | 51 | 0.9 | 7.0 | 0.00 | 0.00 | 0.00 | 85 | 1019.2 |
| 20260906132505 | 67 | 105 | 1.7 | 6.1 | 0.00 | 0.00 | 0.00 | 86 | 1019.1 |
| 20260906132007 | 66 | 142 | 2.6 | 9.6 | 0.00 | 0.00 | 0.00 | 87 | 1019.1 |
| 20260906131518 | 66 | 113 | 2.6 | 9.6 | 0.00 | 0.00 | 0.00 | 88 | 1019.1 |
| 20260906131012 | 66 | 56 | 3.5 | 7.8 | 0.00 | 0.00 | 0.00 | 88 | 1019.1 |
| 20260906130512 | 66 | 27 | 1.7 | 4.3 | 0.00 | 0.00 | 0.00 | 88 | 1019.0 |
| 20260906130028 | 66 | 80 | 2.6 | 4.3 | 0.00 | 0.00 | 0.00 | 90 | 1019.0 |
| 20260906125512 | 65 | 64 | 0.9 | 3.5 | 0.00 | 0.00 | 0.00 | 89 | 1019.0 |
| 20260906125015 | 64 | 144 | 0.0 | 0.9 | 0.00 | 0.00 | 0.00 | 90 | 1019.0 |
| 20260906124506 | 63 | 153 | 0.0 | 0.9 | 0.00 | 0.00 | 0.00 | 91 | 1018.9 |
| 20260906124009 | 63 | 141 | 0.0 | 1.7 | 0.00 | 0.00 | 0.00 | 90 | 1018.8 |
| 20260906123504 | 64 | 155 | 0.0 | 1.7 | 0.00 | 0.00 | 0.00 | 90 | 1018.9 |
| 20260906123029 | 64 | 104 | 0.0 | 0.9 | 0.00 | 0.00 | 0.00 | 89 | 1018.8 |
| 20260906122506 | 64 | 104 | 0.0 | 0.9 | 0.00 | 0.00 | 0.00 | 90 | 1018.8 |
| 20260906122006 | 64 | 102 | 0.0 | 0.0 | 0.00 | 0.00 | 0.00 | 90 | 1018.7 |
| 20260906121515 | 63 | 102 | 0.0 | 0.0 | 0.00 | 0.00 | 0.00 | 94 | 1018.6 |
| 20260906121009 | 62 | 102 | 0.0 | 0.0 | 0.00 | 0.00 | 0.00 | 97 | 1018.6 |
| 20260906120508 | 61 | 102 | 0.0 | 0.0 | 0.00 | 0.00 | 0.00 | 97 | 1018.6 |
| 20260906120024 | 60 | 74 | 0.0 | 0.0 | 0.00 | 0.00 | 0.00 | 97 | 1018.5 |
| 20260906115512 | 59 | 74 | 0.0 | 0.0 | 0.00 | 0.00 | 0.00 | 97 | 1018.3 |
| 20260906115013 | 58 | 74 | 0.0 | 0.0 | 0.00 | 0.00 | 0.00 | 97 | 1018.4 |
| 20260906114533 | 58 | 74 | 0.0 | 0.0 | 0.00 | 0.00 | 0.00 | 97 | 1018.4 |
| 20260906114018 | 57 | 74 | 0.0 | 0.0 | 0.00 | 0.00 | 0.00 | 97 | 1018.4 |
| 20260906113516 | 57 | 74 | 0.0 | 0.0 | 0.00 | 0.00 | 0.00 | 96 | 1018.3 |
| 20260906113012 | 57 | 74 | 0.0 | 0.0 | 0.00 | 0.00 | 0.00 | 96 | 1018.3 |
| 20260906112506 | 57 | 74 | 0.0 | 0.0 | 0.00 | 0.00 | 0.00 | 96 | 1018.2 |
| 20260906112006 | 57 | 74 | 0.0 | 0.0 | 0.00 | 0.00 | 0.00 | 96 | 1018.2 |
| 20260906111510 | 57 | 74 | 0.0 | 0.0 | 0.00 | 0.00 | 0.00 | 96 | 1018.1 |
| 20260906111010 | 57 | 74 | 0.0 | 0.0 | 0.00 | 0.00 | 0.00 | 96 | 1018.1 |
| 20260906110509 | 57 | 74 | 0.0 | 0.0 | 0.00 | 0.00 | 0.00 | 96 | 1018.0 |
| 20260906110017 | 57 | 74 | 0.0 | 0.0 | 0.00 | 0.00 | 0.00 | 96 | 1017.9 |
| 20260906105510 | 57 | 74 | 0.0 | 0.9 | 0.00 | 0.00 | 0.00 | 96 | 1017.9 |
| 20260906105012 | 57 | 74 | 0.0 | 0.9 | 0.00 | 0.00 | 0.00 | 96 | 1017.8 |
| 20260906104527 | 57 | 53 | 0.0 | 0.9 | 0.00 | 0.00 | 0.00 | 96 | 1017.7 |
| 20260906104014 | 57 | 53 | 0.0 | 0.9 | 0.00 | 0.00 | 0.00 | 96 | 1017.7 |
| 20260906103517 | 57 | 52 | 0.0 | 0.0 | 0.00 | 0.00 | 0.00 | 96 | 1017.7 |
| 20260906103029 | 57 | 52 | 0.0 | 0.0 | 0.00 | 0.00 | 0.00 | 96 | 1017.6 |
| 20260906102516 | 57 | 52 | 0.0 | 0.0 | 0.00 | 0.00 | 0.00 | 96 | 1017.6 |
| 20260906102018 | 57 | 52 | 0.0 | 0.0 | 0.00 | 0.00 | 0.00 | 96 | 1017.6 |
| 20260906101508 | 57 | 52 | 0.0 | 0.0 | 0.00 | 0.00 | 0.00 | 96 | 1017.6 |
| 20260906101009 | 57 | 52 | 0.0 | 0.0 | 0.00 | 0.00 | 0.00 | 96 | 1017.6 |
| 20260906100512 | 57 | 52 | 0.0 | 0.0 | 0.00 | 0.00 | 0.00 | 96 | 1017.5 |
| 20260906100012 | 57 | 52 | 0.0 | 0.0 | 0.00 | 0.00 | 0.00 | 95 | 1017.5 |
| 20260906095509 | 57 | 52 | 0.0 | 0.0 | 0.00 | 0.00 | 0.00 | 95 | 1017.5 |
| 20260906095010 | 57 | 52 | 0.0 | 0.0 | 0.00 | 0.00 | 0.00 | 95 | 1017.5 |
| 20260906094524 | 58 | 52 | 0.0 | 0.0 | 0.00 | 0.00 | 0.00 | 95 | 1017.5 |
| 20260906094014 | 58 | 52 | 0.0 | 0.0 | 0.00 | 0.00 | 0.00 | 95 | 1017.5 |
| 20260906093514 | 58 | 52 | 0.0 | 0.0 | 0.00 | 0.00 | 0.00 | 95 | 1017.4 |
| 20260906093044 | 58 | 52 | 0.0 | 0.0 | 0.00 | 0.00 | 0.00 | 95 | 1017.3 |
| 20260906092515 | 58 | 52 | 0.0 | 0.0 | 0.00 | 0.00 | 0.00 | 95 | 1017.2 |
| 20260906092021 | 58 | 52 | 0.0 | 0.0 | 0.00 | 0.00 | 0.00 | 95 | 1017.2 |
| 20260906091529 | 58 | 52 | 0.0 | 0.0 | 0.00 | 0.00 | 0.00 | 95 | 1017.1 |
| 20260906091016 | 58 | 52 | 0.0 | 0.9 | 0.00 | 0.00 | 0.00 | 95 | 1017.0 |
| 20260906090504 | 58 | 52 | 0.0 | 0.9 | 0.00 | 0.00 | 0.00 | 95 | 1017.0 |
| 20260906090012 | 58 | 52 | 0.0 | 0.0 | 0.00 | 0.00 | 0.00 | 95 | 1017.0 |
| 20260906085506 | 58 | 52 | 0.0 | 0.9 | 0.00 | 0.00 | 0.00 | 94 | 1017.0 |
| 20260906085008 | 59 | 52 | 0.0 | 0.9 | 0.00 | 0.00 | 0.00 | 95 | 1016.9 |
| 20260906084517 | 59 | 52 | 0.0 | 0.0 | 0.00 | 0.00 | 0.00 | 94 | 1016.8 |
| 20260906084011 | 59 | 52 | 0.0 | 0.0 | 0.00 | 0.00 | 0.00 | 94 | 1016.7 |
| 20260906083512 | 59 | 52 | 0.0 | 0.0 | 0.00 | 0.00 | 0.00 | 94 | 1016.6 |
| 20260906083025 | 59 | 52 | 0.0 | 0.0 | 0.00 | 0.00 | 0.00 | 94 | 1016.5 |
| 20260906082513 | 59 | 52 | 0.0 | 0.0 | 0.00 | 0.00 | 0.00 | 94 | 1016.5 |
| 20260906082015 | 59 | 52 | 0.0 | 0.9 | 0.00 | 0.00 | 0.00 | 94 | 1016.4 |
| 20260906081544 | 59 | 52 | 0.0 | 0.9 | 0.00 | 0.00 | 0.00 | 94 | 1016.4 |
| 20260906081017 | 59 | 55 | 0.0 | 0.0 | 0.00 | 0.00 | 0.00 | 94 | 1016.4 |
| 20260906080516 | 59 | 55 | 0.0 | 0.0 | 0.00 | 0.00 | 0.00 | 94 | 1016.4 |
| 20260906080032 | 59 | 55 | 0.0 | 0.0 | 0.00 | 0.00 | 0.00 | 93 | 1016.3 |
| 20260906075514 | 60 | 55 | 0.0 | 0.0 | 0.00 | 0.00 | 0.00 | 93 | 1016.3 |
| 20260906075004 | 60 | 55 | 0.0 | 0.0 | 0.00 | 0.00 | 0.00 | 93 | 1016.4 |
| 20260906074512 | 60 | 55 | 0.0 | 0.0 | 0.00 | 0.00 | 0.00 | 92 | 1016.3 |
| 20260906074013 | 60 | 55 | 0.0 | 0.0 | 0.00 | 0.00 | 0.00 | 92 | 1016.2 |
| 20260906073508 | 61 | 55 | 0.0 | 0.0 | 0.00 | 0.00 | 0.00 | 92 | 1016.3 |
| 20260906073036 | 61 | 54 | 0.0 | 0.0 | 0.00 | 0.00 | 0.00 | 91 | 1016.3 |
| 20260906072512 | 61 | 55 | 0.0 | 0.0 | 0.00 | 0.00 | 0.00 | 91 | 1016.3 |
| 20260906072014 | 61 | 55 | 0.0 | 0.9 | 0.00 | 0.00 | 0.00 | 91 | 1016.3 |
| 20260906071529 | 62 | 54 | 0.0 | 0.9 | 0.00 | 0.00 | 0.00 | 91 | 1016.3 |
| 20260906071014 | 62 | 55 | 0.0 | 0.9 | 0.00 | 0.00 | 0.00 | 91 | 1016.4 |
| 20260906070514 | 62 | 54 | 0.0 | 0.0 | 0.00 | 0.00 | 0.00 | 90 | 1016.3 |
| 20260906070039 | 62 | 55 | 0.0 | 1.7 | 0.00 | 0.00 | 0.00 | 90 | 1016.4 |
| 20260906065516 | 62 | 54 | 0.0 | 1.7 | 0.00 | 0.00 | 0.00 | 90 | 1016.5 |
| 20260906065019 | 62 | 63 | 0.0 | 1.7 | 0.00 | 0.00 | 0.00 | 90 | 1016.5 |
| 20260906064533 | 62 | 146 | 0.0 | 0.0 | 0.00 | 0.00 | 0.00 | 90 | 1016.5 |
| 20260906064016 | 62 | 147 | 0.0 | 0.0 | 0.00 | 0.00 | 0.00 | 90 | 1016.5 |
| 20260906063509 | 62 | 148 | 0.0 | 0.0 | 0.00 | 0.00 | 0.00 | 90 | 1016.4 |
| 20260906063014 | 62 | 147 | 0.0 | 0.0 | 0.00 | 0.00 | 0.00 | 90 | 1016.4 |
| 20260906062510 | 62 | 148 | 0.0 | 0.0 | 0.00 | 0.00 | 0.00 | 90 | 1016.5 |
| 20260906062010 | 62 | 148 | 0.0 | 0.0 | 0.00 | 0.00 | 0.00 | 90 | 1016.5 |
| 20260906061524 | 62 | 148 | 0.0 | 0.0 | 0.00 | 0.00 | 0.00 | 89 | 1016.5 |
| 20260906061013 | 62 | 147 | 0.0 | 0.0 | 0.00 | 0.00 | 0.00 | 89 | 1016.6 |
| 20260906060514 | 62 | 147 | 0.0 | 0.0 | 0.00 | 0.00 | 0.00 | 89 | 1016.4 |
| 20260906060030 | 62 | 147 | 0.0 | 0.0 | 0.00 | 0.00 | 0.00 | 89 | 1016.4 |
| 20260906055515 | 62 | 148 | 0.0 | 0.0 | 0.00 | 0.00 | 0.00 | 89 | 1016.4 |
| 20260906055015 | 62 | 147 | 0.0 | 0.0 | 0.00 | 0.00 | 0.00 | 89 | 1016.6 |
| 20260906054532 | 62 | 148 | 0.0 | 0.9 | 0.00 | 0.00 | 0.00 | 89 | 1016.5 |
| 20260906054014 | 63 | 148 | 0.0 | 0.9 | 0.00 | 0.00 | 0.00 | 89 | 1016.5 |
| 20260906053519 | 63 | 146 | 0.0 | 0.9 | 0.00 | 0.00 | 0.00 | 89 | 1016.5 |
| 20260906053038 | 63 | 152 | 0.0 | 0.9 | 0.00 | 0.00 | 0.00 | 88 | 1016.5 |
| 20260906052516 | 63 | 136 | 0.0 | 0.9 | 0.00 | 0.00 | 0.00 | 88 | 1016.5 |
| 20260906052010 | 63 | 132 | 0.0 | 0.9 | 0.00 | 0.00 | 0.00 | 89 | 1016.5 |
| 20260906051521 | 63 | 131 | 0.0 | 0.0 | 0.00 | 0.00 | 0.00 | 89 | 1016.4 |
| 20260906051015 | 63 | 131 | 0.0 | 0.0 | 0.00 | 0.00 | 0.00 | 89 | 1016.4 |
| 20260906050502 | 63 | 131 | 0.0 | 0.0 | 0.00 | 0.00 | 0.00 | 88 | 1016.5 |
| 20260906050006 | 63 | 131 | 0.0 | 0.0 | 0.00 | 0.00 | 0.00 | 88 | 1016.3 |
| 20260906045505 | 63 | 131 | 0.0 | 0.0 | 0.00 | 0.00 | 0.00 | 88 | 1016.4 |
| 20260906045003 | 63 | 131 | 0.0 | 0.0 | 0.00 | 0.00 | 0.00 | 87 | 1016.4 |
| 20260906044509 | 63 | 131 | 0.0 | 0.0 | 0.00 | 0.00 | 0.00 | 87 | 1016.3 |
| 20260906044004 | 63 | 131 | 0.0 | 0.0 | 0.00 | 0.00 | 0.00 | 87 | 1016.4 |
| 20260906043504 | 63 | 131 | 0.0 | 0.0 | 0.00 | 0.00 | 0.00 | 87 | 1016.4 |
| 20260906043010 | 64 | 131 | 0.0 | 0.9 | 0.00 | 0.00 | 0.00 | 87 | 1016.3 |
| 20260906042506 | 64 | 132 | 0.0 | 0.9 | 0.00 | 0.00 | 0.00 | 87 | 1016.4 |
| 20260906042008 | 64 | 132 | 0.0 | 0.9 | 0.00 | 0.00 | 0.00 | 87 | 1016.4 |
| 20260906041518 | 64 | 130 | 0.0 | 0.9 | 0.00 | 0.00 | 0.00 | 87 | 1016.4 |
| 20260906041016 | 64 | 63 | 0.0 | 0.9 | 0.00 | 0.00 | 0.00 | 87 | 1016.3 |
| 20260906040512 | 64 | 64 | 0.0 | 0.9 | 0.00 | 0.00 | 0.00 | 87 | 1016.3 |
| 20260906040027 | 64 | 60 | 0.0 | 0.0 | 0.00 | 0.00 | 0.00 | 86 | 1016.3 |
| 20260906035512 | 64 | 60 | 0.0 | 0.0 | 0.00 | 0.00 | 0.00 | 86 | 1016.3 |
| 20260906035003 | 64 | 60 | 0.0 | 0.0 | 0.00 | 0.00 | 0.00 | 86 | 1016.2 |
| 20260906034505 | 64 | 60 | 0.0 | 0.0 | 0.00 | 0.00 | 0.00 | 86 | 1016.3 |
| 20260906034004 | 64 | 60 | 0.0 | 0.0 | 0.00 | 0.00 | 0.00 | 86 | 1016.3 |
| 20260906033504 | 64 | 60 | 0.0 | 0.0 | 0.00 | 0.00 | 0.00 | 85 | 1016.2 |
| 20260906033006 | 64 | 60 | 0.0 | 0.0 | 0.00 | 0.00 | 0.00 | 86 | 1016.2 |
| 20260906032505 | 64 | 60 | 0.0 | 0.0 | 0.00 | 0.00 | 0.00 | 85 | 1016.2 |
| 20260906032006 | 64 | 60 | 0.0 | 0.0 | 0.00 | 0.00 | 0.00 | 85 | 1016.1 |
| 20260906031513 | 64 | 60 | 0.0 | 0.0 | 0.00 | 0.00 | 0.00 | 85 | 1016.1 |
| 20260906031014 | 64 | 60 | 0.0 | 0.0 | 0.00 | 0.00 | 0.00 | 86 | 1016.1 |
| 20260906030510 | 64 | 60 | 0.0 | 0.0 | 0.00 | 0.00 | 0.00 | 85 | 1016.0 |
| 20260906030024 | 64 | 60 | 0.0 | 0.0 | 0.00 | 0.00 | 0.00 | 85 | 1016.0 |
| 20260906025512 | 64 | 60 | 0.0 | 0.0 | 0.00 | 0.00 | 0.00 | 85 | 1016.0 |
| 20260906025012 | 64 | 60 | 0.0 | 0.0 | 0.00 | 0.00 | 0.00 | 85 | 1016.0 |
| 20260906024528 | 64 | 60 | 0.0 | 0.0 | 0.00 | 0.00 | 0.00 | 85 | 1016.1 |
| 20260906024011 | 64 | 60 | 0.0 | 0.0 | 0.00 | 0.00 | 0.00 | 85 | 1016.1 |
| 20260906023504 | 64 | 60 | 0.0 | 0.0 | 0.00 | 0.00 | 0.00 | 85 | 1016.1 |
| 20260906023007 | 64 | 60 | 0.0 | 0.0 | 0.00 | 0.00 | 0.00 | 85 | 1016.0 |
| 20260906022503 | 64 | 60 | 0.0 | 0.0 | 0.00 | 0.00 | 0.00 | 85 | 1016.1 |
| 20260906022003 | 64 | 60 | 0.0 | 0.0 | 0.00 | 0.00 | 0.00 | 85 | 1016.0 |
| 20260906021510 | 63 | 60 | 0.0 | 0.0 | 0.00 | 0.00 | 0.00 | 85 | 1016.1 |
| 20260906021004 | 63 | 60 | 0.0 | 0.0 | 0.00 | 0.00 | 0.00 | 86 | 1016.0 |
| 20260906020508 | 63 | 60 | 0.0 | 0.0 | 0.00 | 0.00 | 0.00 | 85 | 1016.0 |
| 20260906020016 | 63 | 60 | 0.0 | 0.0 | 0.00 | 0.00 | 0.00 | 86 | 1015.9 |
| 20260906015508 | 63 | 60 | 0.0 | 0.0 | 0.00 | 0.00 | 0.00 | 85 | 1016.0 |
| 20260906015010 | 63 | 60 | 0.0 | 0.0 | 0.00 | 0.00 | 0.00 | 85 | 1015.9 |
| 20260906014533 | 63 | 60 | 0.0 | 0.0 | 0.00 | 0.00 | 0.00 | 84 | 1015.9 |
| 20260906014013 | 63 | 60 | 0.0 | 0.0 | 0.00 | 0.00 | 0.00 | 83 | 1015.9 |
| 20260906013512 | 63 | 60 | 0.0 | 0.0 | 0.00 | 0.00 | 0.00 | 83 | 1015.9 |
| 20260906013029 | 64 | 60 | 0.0 | 0.0 | 0.00 | 0.00 | 0.00 | 82 | 1015.9 |
| 20260906012502 | 64 | 60 | 0.0 | 0.0 | 0.00 | 0.00 | 0.00 | 81 | 1015.8 |
| 20260906012003 | 64 | 60 | 0.0 | 0.0 | 0.00 | 0.00 | 0.00 | 81 | 1015.8 |
| 20260906011508 | 65 | 60 | 0.0 | 0.0 | 0.00 | 0.00 | 0.00 | 81 | 1015.8 |
| 20260906011005 | 65 | 60 | 0.0 | 0.0 | 0.00 | 0.00 | 0.00 | 80 | 1015.7 |
| 20260906010504 | 65 | 60 | 0.0 | 0.0 | 0.00 | 0.00 | 0.00 | 79 | 1015.7 |
| 20260906010014 | 65 | 60 | 0.0 | 0.0 | 0.00 | 0.00 | 0.00 | 78 | 1015.7 |
| 20260906005507 | 65 | 60 | 0.0 | 0.0 | 0.00 | 0.00 | 0.00 | 78 | 1015.5 |
| 20260906005009 | 65 | 60 | 0.0 | 0.0 | 0.00 | 0.00 | 0.00 | 79 | 1015.5 |
| 20260906004520 | 65 | 60 | 0.0 | 0.0 | 0.00 | 0.00 | 0.00 | 79 | 1015.5 |
| 20260906004016 | 65 | 60 | 0.0 | 0.0 | 0.00 | 0.00 | 0.00 | 80 | 1015.5 |
| 20260906003510 | 65 | 60 | 0.0 | 0.0 | 0.00 | 0.00 | 0.00 | 79 | 1015.4 |
| 20260906003027 | 65 | 60 | 0.0 | 0.0 | 0.00 | 0.00 | 0.00 | 78 | 1015.5 |
| 20260906002514 | 66 | 60 | 0.0 | 0.0 | 0.00 | 0.00 | 0.00 | 78 | 1015.4 |
| 20260906002012 | 66 | 60 | 0.0 | 0.0 | 0.00 | 0.00 | 0.00 | 77 | 1015.4 |
| 20260906001531 | 66 | 60 | 0.0 | 0.0 | 0.00 | 0.00 | 0.00 | 76 | 1015.4 |
| 20260906001003 | 67 | 60 | 0.0 | 0.0 | 0.00 | 0.00 | 0.00 | 75 | 1015.3 |
| 20260906000504 | 67 | 60 | 0.0 | 0.0 | 0.00 | 0.00 | 0.00 | 74 | 1015.2 |
| 20260906000009 | 67 | 60 | 0.0 | 0.0 | 0.00 | 0.00 | 0.00 | 73 | 1015.2 |
| 20260905235503 | 68 | 60 | 0.0 | 0.0 | 0.00 | 0.00 | 0.00 | 72 | 1015.1 |
| 20260905235009 | 68 | 60 | 0.0 | 0.0 | 0.00 | 0.00 | 0.00 | 71 | 1015.1 |
| 20260905234517 | 69 | 60 | 0.0 | 0.0 | 0.00 | 0.00 | 0.00 | 71 | 1015.2 |
| 20260905234008 | 69 | 60 | 0.0 | 0.0 | 0.00 | 0.00 | 0.00 | 70 | 1015.3 |
| 20260905233510 | 69 | 60 | 0.0 | 1.7 | 0.00 | 0.00 | 0.00 | 69 | 1015.3 |
| 20260905233023 | 70 | 60 | 0.0 | 1.7 | 0.00 | 0.00 | 0.00 | 68 | 1015.3 |
| 20260905232511 | 70 | 59 | 0.0 | 1.7 | 0.00 | 0.00 | 0.00 | 67 | 1015.4 |
| 20260905232013 | 70 | 96 | 0.0 | 1.7 | 0.00 | 0.00 | 0.00 | 67 | 1015.3 |
| 20260905231530 | 71 | 58 | 0.0 | 3.5 | 0.00 | 0.00 | 0.00 | 66 | 1015.2 |
| 20260905231017 | 71 | 60 | 1.7 | 3.5 | 0.00 | 0.00 | 0.00 | 64 | 1015.2 |
| 20260905230515 | 71 | 46 | 0.0 | 1.7 | 0.00 | 0.00 | 0.00 | 64 | 1015.3 |
| 20260905230036 | 72 | 47 | 0.0 | 1.7 | 0.00 | 0.00 | 0.00 | 64 | 1015.3 |
| 20260905225502 | 72 | 72 | 0.0 | 3.5 | 0.00 | 0.00 | 0.00 | 63 | 1015.2 |
| 20260905225006 | 73 | 352 | 1.7 | 3.5 | 0.00 | 0.00 | 0.00 | 62 | 1015.2 |
| 20260905224515 | 73 | 11 | 0.9 | 3.5 | 0.00 | 0.00 | 0.00 | 62 | 1015.2 |
| 20260905224009 | 73 | 44 | 0.9 | 2.6 | 0.00 | 0.00 | 0.00 | 64 | 1015.2 |
| 20260905223510 | 73 | 74 | 0.9 | 2.6 | 0.00 | 0.00 | 0.00 | 63 | 1015.2 |
| 20260905223030 | 73 | 56 | 0.9 | 4.3 | 0.00 | 0.00 | 0.00 | 63 | 1015.2 |
| 20260905222516 | 73 | 62 | 0.9 | 4.3 | 0.00 | 0.00 | 0.00 | 63 | 1015.2 |
| 20260905222012 | 74 | 53 | 0.9 | 3.5 | 0.00 | 0.00 | 0.00 | 62 | 1015.2 |